Simultaneous Nadir Overpasses (SNOs) Predictions

Prediction of SNOs between LANDSAT-8 and METOP-A Satellite Orbit:

Table of predicted SNOs for the next 14.0 days since TLE Epoch: 11/30/2019
Index Date (LANDSAT-8) Time (LANDSAT-8) Lat,Lon (LANDSAT-8) SZA (LANDSAT-8 ) Date (METOP-A) Time (METOP-A) Lat,Lon (METOP-A) SZA (METOP-A ) Distance(km) Time Diff (sec)
1 12/02/2019 13:05:11 -81.48,-149.73 73.77 12/02/2019 13:04:23 -81.48,-149.72 73.79 0.37 48
2 12/02/2019 13:54:38 81.47, 17.63 106.20 12/02/2019 13:55:04 81.48, 17.57 106.21 1.41 26
3 12/05/2019 08:39:27 -81.49, -83.29 73.41 12/05/2019 08:38:46 -81.48, -83.21 73.43 1.44 41
4 12/05/2019 09:28:54 81.47, 84.05 106.55 12/05/2019 09:29:27 81.48, 84.06 106.58 1.02 33
5 12/08/2019 04:13:44 -81.47, -17.15 73.16 12/08/2019 04:13:10 -81.48, -17.11 73.16 1.30 34
6 12/08/2019 05:03:10 81.48, 150.55 106.86 12/08/2019 05:03:50 81.48, 150.52 106.88 0.79 40
7 12/10/2019 23:47:59 -81.48, 49.47 72.89 12/10/2019 23:47:32 -81.48, 49.37 72.92 1.62 27
8 12/11/2019 00:37:25 81.48,-142.86 107.12 12/11/2019 00:38:12 81.48,-143.04 107.12 2.97 47
9 12/13/2019 19:22:16 -81.48, 115.78 72.73 12/13/2019 19:21:55 -81.48, 115.83 72.73 1.02 21




NCC Satellite Simultaneous Nadir Overpasses (SNOs) Prediction Service
